{"data":{"norad_id":68776,"intl_designator":"2026-086L","name":"STARLINK-37393","alt_names":[],"object_type":"PAYLOAD","status":"ACTIVE","operator":null,"country":"US","launch_date":"2026-04-19","launch_site_code":"AFWTR","launch_vehicle":null,"mission":null,"orbit_class":"UNKNOWN","rcs_meters":null,"size_class":null,"mass_kg":null,"dimensions":null,"purposes":["comms"],"wikipedia_slug":null,"has_3d_model":false,"image_url":null,"decayed_at":null,"tle_current":{"epoch":"2026-05-25T02:19:19.702848Z","epoch_age_seconds":70179,"freshness":"FRESH","line1":"1 68776U 26086L   26145.09675582 -.00310636  00000+0 -21826-2 0  9997","line2":"2 68776  97.2859 181.9698 0001118  48.7785 311.3577 15.74932277  5524","mean_motion":15.74932277,"eccentricity":0.0001118,"inclination_deg":97.2859,"raan_deg":181.9698,"arg_perigee_deg":48.7785,"mean_anomaly_deg":311.3577,"bstar":-0.0021826,"rev_number":552,"period_min":91.432502910092,"perigee_km":344.0722749495,"apogee_km":345.57552900718,"semimajor_km":6722.9609019783,"source":"CELESTRAK","updated_at":"2026-05-25T13:38:22.036181Z"}}}